This demonstration page uses our WeatherBlox Daily Observations layout. Learn more.

Left ArrowRight Arrow

Hourly Observations for August 15, 2015

Temp ( °F °C ) Dew Point ( °F °C ) Humidity (%) Winds ( mph kmh ) Pressure ( in mb ) Visibility ( mi km ) Precip ( " mm )
12:15 am 00:15 Clear 73 22.6 68 20.1 86 86 SE 8 13 30.03 1017 10 16 N/A
12:35 am 00:35 Clear 72 22.2 68 20 87 87 SE 8 13 30.03 1017 10 16 N/A
12:55 am 00:55 Clear 72 22 67 19.6 86 86 SE 8 13 30.03 1017 10 16 N/A
1:15 am 01:15 Clear 72 22.1 67 19.4 85 85 SE 6 9 30.00 1016 10 16 N/A
1:35 am 01:35 Clear 71 21.5 66 19.1 86 86 SE 6 9 30.00 1016 10 16 N/A
1:55 am 01:55 Clear 70 21.3 66 19 87 87 SE 6 9 30.00 1016 10 16 N/A
2:15 am 02:15 Clear 70 21.3 66 19 87 87 SE 6 9 30.00 1016 10 16 N/A
2:35 am 02:35 Clear 71 21.7 66 18.9 84 84 SE 8 13 30.00 1016 10 16 N/A
2:55 am 02:55 Clear 71 21.7 66 18.8 84 84 SSE 8 13 30.00 1016 10 16 N/A
3:15 am 03:15 Clear 71 21.7 66 18.9 84 84 SSE 9 15 30.00 1016 10 16 N/A
3:35 am 03:35 Clear 70 21.3 66 18.9 86 86 SSE 8 13 30.00 1016 10 16 N/A
3:55 am 03:55 Clear 70 21.3 66 19 87 87 SSE 7 11 30.00 1016 10 16 N/A
4:15 am 04:15 Clear 71 21.6 67 19.2 86 86 SSE 9 15 30.00 1016 10 16 N/A
4:35 am 04:35 Clear 71 21.9 67 19.3 85 85 S 9 15 30.00 1016 10 16 N/A
4:55 am 04:55 Clear 71 21.7 67 19.2 86 86 S 9 15 30.00 1016 10 16 N/A
5:15 am 05:15 Clear 71 21.7 67 19.2 86 86 S 10 17 30.00 1016 10 16 N/A
5:35 am 05:35 Clear 71 21.5 67 19.2 87 87 S 7 11 30.00 1016 10 16 N/A
5:55 am 05:55 Clear 70 21 66 19 88 88 S 6 9 30.00 1016 10 16 N/A
6:15 am 06:15 Clear 70 21 66 19.1 89 89 S 6 9 30.00 1016 10 16 N/A
6:35 am 06:35 Clear 69 20.5 66 19 91 91 S 5 7 30.00 1016 10 16 N/A
6:55 am 06:55 Sunny 69 20.3 66 18.9 92 92 S 6 9 30.03 1017 7 11 N/A
7:15 am 07:15 Sunny 68 20.2 66 19 93 93 S 7 11 30.03 1017 7 11 N/A
7:35 am 07:35 Sunny 69 20.5 66 19 91 91 S 7 11 30.00 1016 7 11 N/A
7:55 am 07:55 Sunny 70 21 67 19.3 90 90 S 9 15 30.00 1016 10 16 N/A
8:15 am 08:15 Sunny 71 21.7 67 19.6 88 88 S 8 13 30.00 1016 10 16 N/A
8:35 am 08:35 Sunny 73 22.6 67 19.7 84 84 S 10 17 30.00 1016 7 11 N/A
8:55 am 08:55 Sunny 74 23.3 68 19.9 81 81 S 14 22 30.00 1016 10 16 N/A
9:15 am 09:15 Sunny 75 24.1 69 20.4 80 80 S 10 17 30.00 1016 10 16 N/A
9:35 am 09:35 Sunny 76 24.7 69 20.5 78 78 S 12 19 29.97 1015 10 16 N/A
9:55 am 09:55 Sunny 78 25.5 70 20.9 76 76 S 13 20 29.97 1015 10 16 N/A
10:15 am 10:15 Sunny 79 26.1 71 21.5 76 76 S 12 19 29.97 1015 10 16 N/A
10:35 am 10:35 Sunny 80 26.8 71 21.6 73 73 S 10 17 29.97 1015 10 16 N/A
10:55 am 10:55 Sunny 81 27.2 71 21.7 72 72 S 16 26 29.94 1014 10 16 N/A
11:15 am 11:15 Sunny 82 27.7 71 21.8 70 70 S 14 22 29.91 1013 10 16 N/A
11:35 am 11:35 Sunny 83 28.4 72 22.2 69 69 S 14 22 29.91 1013 10 16 N/A
11:55 am 11:55 Sunny 84 28.7 72 22.1 68 68 S 15 24 29.91 1013 10 16 N/A
12:15 pm 12:15 Sunny 84 29.1 72 22.4 67 67 S 15 24 29.91 1013 10 16 N/A
12:35 pm 12:35 Sunny 85 29.5 72 22.3 65 65 S 17 28 29.91 1013 10 16 N/A
12:55 pm 12:55 Sunny 86 29.9 72 22.3 64 64 S 16 26 29.88 1012 10 16 N/A
1:15 pm 13:15 Partly Cloudy 86 30 72 22.4 64 64 S 15 24 29.88 1012 10 16 N/A
1:35 pm 13:35 Sunny 86 30.2 72 22.1 62 62 S 17 28 29.88 1012 10 16 N/A
1:55 pm 13:55 Sunny 87 30.6 72 22.1 60 60 S 14 22 29.85 1011 10 16 N/A
2:15 pm 14:15 Sunny 87 30.8 72 22.3 61 61 S 15 24 29.85 1011 10 16 N/A
2:35 pm 14:35 Sunny 88 31 71 21.9 58 58 S 16 26 29.85 1011 10 16 N/A
2:55 pm 14:55 Sunny 88 31.3 72 22.2 58 58 S 17 28 29.85 1011 10 16 N/A
3:15 pm 15:15 Sunny 89 31.5 72 22.4 58 58 S 18 30 29.85 1011 10 16 N/A
3:35 pm 15:35 Sunny 89 31.7 72 22.4 58 58 S 16 26 29.85 1011 10 16 N/A
3:55 pm 15:55 Sunny 89 31.9 73 22.7 58 58 S 16 26 29.83 1010 10 16 N/A
4:15 pm 16:15 Sunny 89 31.8 72 22 56 56 S 16 26 29.83 1010 10 16 N/A
4:35 pm 16:35 Sunny 90 32 72 22.1 56 56 S 17 28 29.83 1010 10 16 N/A
4:55 pm 16:55 Sunny 90 32 72 22 55 55 S 18 30 29.83 1010 10 16 N/A
5:15 pm 17:15 Sunny 89 31.8 70 21.1 53 53 SSE 15 24 29.80 1009 10 16 N/A
5:35 pm 17:35 Sunny 89 31.6 71 21.5 55 55 S 14 22 29.80 1009 10 16 N/A
5:55 pm 17:55 Sunny 89 31.5 69 20.8 53 53 S 16 26 29.80 1009 10 16 N/A
6:15 pm 18:15 Sunny 89 31.4 70 21.1 54 54 S 15 24 29.80 1009 10 16 N/A
6:35 pm 18:35 Sunny 88 31.2 70 21.2 55 55 S 10 17 29.80 1009 10 16 N/A
6:55 pm 18:55 Sunny 87 30.8 69 20.6 55 55 SSE 12 19 29.80 1009 10 16 N/A
7:15 pm 19:15 Sunny 87 30.3 70 20.9 57 57 SSE 12 19 29.83 1010 10 16 N/A
7:35 pm 19:35 Sunny 86 30 68 20.2 56 56 SSE 12 19 29.83 1010 10 16 N/A
7:55 pm 19:55 Sunny 84 28.9 68 20 59 59 SSE 10 17 29.83 1010 10 16 N/A
8:15 pm 20:15 Sunny 83 28.1 68 19.8 61 61 SSE 9 15 29.83 1010 10 16 N/A
8:35 pm 20:35 Sunny 81 27.1 68 19.8 64 64 SSE 10 17 29.83 1010 10 16 N/A
8:55 pm 20:55 Clear 80 26.7 67 19.6 65 65 SSE 10 17 29.83 1010 10 16 N/A
9:15 pm 21:15 Clear 79 26.1 68 19.8 68 68 SSE 9 15 29.85 1011 10 16 N/A
9:35 pm 21:35 Clear 78 25.4 68 20.1 73 73 SSE 7 11 29.85 1011 10 16 N/A
9:55 pm 21:55 Clear 77 24.8 68 20.1 75 75 SSE 8 13 29.85 1011 10 16 N/A
10:15 pm 22:15 Clear 77 25 68 19.8 73 73 SSE 8 13 29.88 1012 10 16 N/A
10:35 pm 22:35 Clear 76 24.4 68 20 77 77 SSE 7 11 29.88 1012 10 16 N/A
10:55 pm 22:55 Clear 76 24.4 67 19.7 75 75 S 8 13 29.88 1012 10 16 N/A
11:15 pm 23:15 Clear 76 24.5 67 19.7 75 75 S 9 15 29.88 1012 10 16 N/A
11:35 pm 23:35 Clear 77 25.1 67 19.5 71 71 SSE 12 19 29.88 1012 10 16 N/A
11:55 pm 23:55 Clear 77 25.2 67 19.3 70 70 S 12 19 29.91 1013 7 11 N/A

Powered by AerisWeather